Вернуться в каталог

COSMOS 1011

АктивенВоенныеPO
NORAD 10917·PAYLOAD·🇷🇺 Russia

Запущен May 23, 1978 с Plesetsk Cosmodrome

Loading…

Ближайшие Пролёты (ближайшие 24 часа)

TLE

СвежийSource: Space-Track

Эпоха: Sep 14, 2026, 07:05 UTC

1 10917U 78053A   26257.29534690  .00000050  00000-0  35500-4 0  9993
2 10917  82.9215  11.8952 0037871  73.0298 316.1632 13.75532079424181

Отслеживайте COSMOS 1011 в реальном времени с AllMySat

Download on the App Store